Regional Weather Roundup
Issued by NWS State College, PA

Home | Current Version | Previous Version | Text Only | Print | Product List | Glossary On
Versions: 1 2 3 4 5 6 7 8 9 10 11 12 13 14 15 16 17 18 19 20 21 22 23 24 25 26 27 28 29 30 31 32 33 34 35 36 37 38 39 40 41 42 43 44 45 46 47 48 49 50
000
ASUS41 KCTP 231310
RWRCTP

REGIONAL WEATHER ROUNDUP
NATIONAL WEATHER SERVICE STATE COLLEGE PA
900 AM EDT SAT AUG 23 2014

Note: "fair" indicates few or no clouds below 12,000 feet with no
significant weather and/or obstructions to visibility.

* = STATION THAT DOES NOT REPORT PRECIPITATION /E.G. RAIN...SNOW...ETC/
    THUNDER OR FOG.

PAZ002>004-007>009-013>016-020>023-029>032-231400-
WESTERN PENNSYLVANIA

CITY           SKY/WX    TMP DP  RH WIND       PRES   REMARKS
ERIE           CLOUDY    70  66  88 NE10      30.03S FOG
MEADVILLE      CLOUDY    67  65  93 NE7       30.05S FOG
FRANKLIN*      CLOUDY    64  61  88 N5        30.06S VSB 1/4
NEW CASTLE     NOT AVBL
BEAVER COUNTY  FOG       66  66 100 CALM      30.03S VSB 1
BUTLER*        CLOUDY    66  64  94 CALM      30.05R VSB<1/4
PITTSBURGH INT PTSUNNY   70  68  93 N6        30.02S
PITTSBURGH     FOG       70  70 100 CALM      30.01S VSB 1/4
INDIANA*       CLOUDY    72  70  94 CALM      30.06S FOG
LATROBE        CLOUDY    72  72 100 CALM      30.03R
WASHINGTON CO* CLOUDY    70  68  94 CALM      30.03S
$$

PAZ004>006-010>012-017>019-024>028-033>037-041-042-045-046-049>053-231400-
CENTRAL PENNSYLVANIA

CITY           SKY/WX    TMP DP  RH WIND       PRES   REMARKS
BRADFORD       CLOUDY    65  64  97 NE5       30.06S FOG
DUBOIS         FOG       67  67 100 CALM      30.04S VSB 1/4
CLEARFIELD     CLOUDY    67  67 100 NE5       30.04R FOG
JOHNSTOWN      CLOUDY    68  65  90 W5        30.05S
ALTOONA        LGT RAIN  68  67  96 E6        30.04S
STATE COLLEGE  CLOUDY    64  63  94 E7        30.06R
WILLIAMSPORT   CLOUDY    66  61  84 E9        30.06R
SELINSGROVE    CLOUDY    66  62  87 CALM      30.07S
FT INDIANTOWN  CLOUDY    65  65 100 E6        30.08R
CAPITAL CITY   CLOUDY    67  62  84 NE7       30.06R
HARRISBURG     CLOUDY    69  62  78 E9        30.05R
YORK           CLOUDY    68  63  84 E5        30.06R
$$

PAZ038>040-043-044-047-048-054-055-060>062-067>071-231400-
EASTERN PENNSYLVANIA

CITY           SKY/WX    TMP DP  RH WIND       PRES   REMARKS
SCRANTON       LGT RAIN  63  58  83 CALM      30.10S
MOUNT POCONO   RAIN      60  58  92 SE6       30.12S FOG
ALLENTOWN      CLOUDY    65  60  84 NE6       30.09R
QUAKERTOWN*    CLOUDY    63  63 100 CALM      30.09S
READING        CLOUDY    66  62  87 E7        30.07R
LANCASTER      CLOUDY    67  62  84 E6        30.06S
COATESVILLE    CLOUDY    64  46  52 NE5       30.08R
POTTSTOWN      RAIN      64  62  93 NE5       30.09R FOG
BLUE BELL      CLOUDY    64  64 100 NE5       30.06S
DOYLESTOWN     LGT RAIN  63  63 100 CALM      30.07S
WILLOW GROVE   NOT AVBL
NORTH PHILA    LGT RAIN  68  62  81 NE5       30.08S
PHILADELPHIA   PTSUNNY   70  63  78 E9G21     30.06R
$$


USA.gov is the U.S. government's official web portal to all federal, state and local government web resources and services.